User: anonymous   Login
Location: Cincinnati Observatory Center
(39.1389°N, 84.4225°W)
Time: 19:04:41
(UTC-04:00)
Language:

JAS-1B - Orbit

View from above orbital plane
View from above orbital plane
View from above satellite
View from above satellite

Ground track
Ground track

The orbit data is extracted from the following two-line orbital elements,

1 20480U 90013C   16209.11839734 -.00000025  00000-0  98329-5 0  9995
2 20480  99.0213  37.7701 0540915  47.8144  61.1877 12.83411818240022
Epoch (UTC): 27 July 2016 02:50:29
Eccentricity: 0.0540915
inclination: 99.0213°
perigee height: 911 km
apogee height: 1744 km
right ascension of ascending node: 37.7701°
argument of perigee: 47.8144°
revolutions per day: 12.83411818
mean anomaly at epoch: 61.1877°
orbit number at epoch: 24002

The dashed part of the orbit path shows where the satellite is in the earth's shadow,  

DLR